Showing default

IRIDE FM7, 66701

Orbit data source: Space-Track

IRIDE FM7, 66701 is an Italian payload satellite in SSO that was launched on Fri, 28 Nov 2025 UTC via an FALCON 9 launch vehicle from the Air Force Western Test Range (AFWTR). Payload-class satellites include a variety of spacecraft equipped with specific instruments for various scientific and technological missions. These include communications satellites like Starlink; space stations such as the ISS; scientific satellites like the Hubble; Earth observation satellites from companies like Planet Labs, Umbra, and HawkEye 360; GPS; miniature CubeSats for education and research; and military/defense satellites.

Loading next visibility...
Identifier
66701, 2025-276AM
Orbit
SSO
Country
Flag of ITIT
Related business
Manufacturer
OHB-I
Mission
Operational Commercial Technology
Bus & Motor
EAGLET, Unknown motor
Mass
25 kg wet, 25 kg dry
Launch date (UTC)
2025-11-28 (9 months ago)
Launch vehicle
FALCON 9
Launch site
Air Force Western Test Range (AFWTR)
Object type
Payload
Rocket body
Debris
Shape & HBR
Box + 2 Pan, 1.0 m
Radar Cross Section
0.368 m², Medium (>0.1 m² and < 1m²)

Expand to show TLE details & history
Last TLE update: 11 hours ago

TLE from 11 hours ago
0 IRIDE FM7
1 66701U 25276AM  26238.46695769  .00004981  00000-0  22840-3 0  9996
2 66701  97.4177 310.9992 0006152 112.9069 247.2816 15.20888312 41106
Epoch: 2026-08-26T11:12Z
TLE epoch observation values (Epoch: 2026-08-26T11:12:25.144Z)
Latitude
-0.00007°
Longitude
168.1749°
Altitude
507.889 km
Speed
7.609 km/s
True Right ascension
20h 43m 59s
True Declination
0° 00' 00"
Sunlit
Object was in full shadow at epoch
Visualization orbit readout
Latitude
Unknown
Longitude
Unknown
Altitude
Unknown
Speed
Unknown
Apparent Right ascension
Unknown
Apparent Declination
Unknown
Sunlit
N/A
Visualization observer readout
Local Sidereal Time
13:29:45
Azimuth
Unknown
Elevation
Unknown
Doppler factor
Unknown
Orbital elements
Apogee altitude
504.357 km
Perigee altitude
495.893 km
Semi-major axis
6,878.262 km
Eccentricity
0.00062
Inclination
97.4177°
RAAN
310.9992°
Arg. of periapsis
112.9069°
True anomaly
247.21659°
Mean anomaly
247.2816°
Eccentric anomaly
247.24909°
Mean motion
3.80474 °/min
Orbital period
94.62 mins
BSTAR
0.0002284
Loading maneuver chart data...
Computing Atmospheric mass density...
Loading historical data...
Loading historical data...
Loading historical data...
Loading historical data...
Loading historical data...
Loading historical data...
Loading historical data...

Documentation

Showing up to 5 results
|